DMSP 5D-2 F11 (USA 73)

Satellite information

Favourite Embed

Satellite Type and Status

PAYLOADIN ORBIT

Key statistics

Satellite DMSP 5D-2 F11 (USA 73) at a glance.

Uptime

12435

Days in orbit

Revolutions

≈ 14.2

Per day

Orbit

SSO

Sun Synchronous Orbit

Inclination

98.7

Latest

Satellite identification and parameters

Extended collection of information and parameters for DMSP 5D-2 F11 (USA 73).

Object identification

Identified? True

Debris? False

Object name: DMSP 5D-2 F11 (USA 73)

International designator: 1991-082A

Object number (NORAD): 21798

Object ID (CCSDS): 21798

Country: UNITED STATES OF AMERICA (US)

Current information (Y/N): Y

RCS size: LARGE

Orbital parameters

Period: 101.596 minutes

Inclination: 98.7117 deg

SMA: 7212.345 km

Apoapsis: 844.135 km

Periapsis: 824.285 km

RAAN: 13.2277 deg

Eccentricy: 0.00137611

Argument of periapsis: 88.9144 deg

Mean anomaly: 271.3608 deg

Mean motion: 14.17385595 rev/day

Mean motion (dot): 0.0000016 rev/day2

B* drag term: 0.00010025805 1/REarth

Two-line elements (TLE)

Creation date: Dec. 12, 2025, 10:14 a.m.

Reference frame: TEME

Reference center: EARTH

Epoch: Dec. 12, 2025, 1:41 a.m. UTC

TLE line 0: 0 DMSP 5D-2 F11 (USA 73)

TLE line 1: 1 21798U 91082A 25346.07061223 .00000160 00000-0 10026-3 0 9997

TLE line 2: 2 21798 98.7117 13.2277 0013761 88.9144 271.3608 14.17385595758629

Live tracking on map

Real-time ground track for satellite DMSP 5D-2 F11 (USA 73).

In-orbit conjunctions

A list of the most updated potential collisions computed for object DMSP 5D-2 F11 (USA 73).

Target Orbit TCA Probability of collision Miss distance Type
FENGYUN 1C DEB SSO 2025-05-13 22:48:54 0.00010775 626.0 (m) DEBRIS
FENGYUN 1C DEB SSO 2025-04-07 19:22:03 0.0001493862 819.0 (m) DEBRIS

Associated space launch

Military meteorological satellite

DMSP 5D-2 F11 (USA 73) was lifted into orbit during the mission ‘Atlas E | DMSP-5D2 F11’, on board a Atlas E space rocket.

The launch took place on Nov. 28, 1991, 1:23 p.m. from Space Launch Complex 3W.

For more information about the launch, click the button.

Launch to space Atlas E | DMSP-5D2 F11
Atlas E | DMSP-5D2 F11

Agency: N/A

Status: Launch Successful

Launch date: Nov. 28, 1991, 1:23 p.m. UTC

Rocket: Atlas E

Launch pad: Space Launch Complex 3W

Location: Vandenberg SFB, CA, USA

...

Latest news about this satellite

There are no fresh news available about this satellite. Check back as we update our databases every day.


Newsletter sign-up

Weekly statistics, charts and insights to help you stay on top of the space industry.